Regional Weather Roundup
Issued by NWS

Home | Current Version | Previous Version | Graphics & Text | Print | Product List | Glossary On
Versions: 1 2 3 4 5 6 7 8 9 10 11 12 13 14 15 16 17 18 19 20 21 22 23 24 25 26 27 28 29 30 31 32 33 34 35 36 37 38 39 40 41 42 43 44 45 46 47 48 49 50
000
ASUS43 KLSX 292357
RWRMO

WEATHER SUMMARY FOR MISSOURI
NATIONAL WEATHER SERVICE SPRINGFIELD MO
700 PM CDT MON AUG 29 2016

NOTE: "FAIR" INDICATES FEW OR NO CLOUDS BELOW 12,000 FEET WITH NO
       SIGNIFICANT WEATHER AND/OR OBSTRUCTIONS TO VISIBILITY.
       CURRENT SKY AND/OR WEATHER CONDITIONS ARE NOT AVAILABLE FOR
       CHILLICOTHE AND FARMINGTON.

MOZ001>031-035>038-043-044-053-054-300100-
...NORTHERN AND WESTERN MISSOURI...

CITY           SKY/WX    TMP DP  RH WIND       PRES   REMARKS
KANSAS CTY INT PTCLDY    85  70  60 SE6       30.11R
6HR MIN TEMP:  85; 6HR MAX TEMP:  89; 6HR PCP: TRACE;

LEE`S SUMMIT   CLEAR     85  73  67 E5        30.11R HX  91
6HR MIN TEMP:  84; 6HR MAX TEMP:  89;

ST JOSEPH      CLEAR     84  72  67 SE7       30.11R
6HR MIN TEMP:  84; 6HR MAX TEMP:  91;

KIRKSVILLE     CLOUDY    81  73  78 E5        30.14R

$$
MOZ066>068-077>081-088>096-101>105-300100-
...SOUTHWEST MISSOURI...

CITY           SKY/WX    TMP DP  RH WIND       PRES   REMARKS
SPRINGFIELD    PTCLDY    83  68  60 S7        30.10S
6HR MIN TEMP:  83; 6HR MAX TEMP:  93;

JOPLIN         CLEAR     86  68  54 SE5       30.09R
6HR MIN TEMP:  85; 6HR MAX TEMP:  92;

BRANSON        TSTM      70  68  94 E7        30.15F FOG

$$
MOZ032>034-039>042-045>050-055>058-069>072-300100-
...CENTRAL MISSOURI...

CITY           SKY/WX    TMP DP  RH WIND       PRES   REMARKS
COLUMBIA       NOT AVBL
JEFFERSON CITY CLEAR     85  74  69 NE6       30.08F HX  92
6HR MIN TEMP:  85; 6HR MAX TEMP:  91;

ROLLA          CLEAR     84  73  69 SE3       30.12R HX  90
6HR MIN TEMP:  84; 6HR MAX TEMP:  90;

SEDALIA        CLEAR     86  72  62 E3        30.11F HX  92
6HR MIN TEMP:  85; 6HR MAX TEMP:  91; 6HR PCP: TRACE;


$$
MOZ051-052-059>065-300100-
...EAST CENTRAL MISSOURI...

CITY           SKY/WX    TMP DP  RH WIND       PRES   REMARKS
ST LOUIS INTL  MOCLDY    89  71  55 E8        30.10S HX  95
6HR MIN TEMP:  89; 6HR MAX TEMP:  94;


$$
MOZ072>076-082>087-097>100-106>115-300100-
...SOUTH CENTRAL AND SOUTHEAST MISSOURI...

CITY           SKY/WX    TMP DP  RH WIND       PRES   REMARKS
CAPE GIRARDEAU CLEAR     87  73  62 NE5       30.06S HX  94
6HR MIN TEMP:  87; 6HR MAX TEMP:  92;

POPLAR BLUFF   CLEAR     86  75  69 NE5       30.05S HX  95
6HR MIN TEMP:  86; 6HR MAX TEMP:  92;

WEST PLAINS    CLEAR     84  72  67 E5        30.13S
6HR MIN TEMP:  84; 6HR MAX TEMP:  90;


$$



USA.gov is the U.S. government's official web portal to all federal, state and local government web resources and services.